Torna al catalogo

FENGYUN 1C DEB

AttivoSSO
NORAD 31509·DEBRIS·🇨🇳 China

Lanciato May 10, 1999 da Taiyuan Satellite Launch Center

Loading…

Prossimi Passaggi (prossime 24 ore)

TLE

AggiornatoSource: Space-Track

Epoca: Sep 13, 2026, 14:16 UTC

1 31509U 99025BWY 26256.59482541  .00002399  00000-0  15167-2 0  9997
2 31509  99.0383  15.4579 0193390 184.9295 174.9967 13.96238782977966

Traccia FENGYUN 1C DEB in tempo reale con AllMySat

Download on the App Store